Weather reports worldwide

Advertisment
Messina, Italy (16420): temperature & dewpoint: 10.11.2018 05:00:00 - 16.11.2018 05:00:00 (CET)Messina, Italy (16420): wind speed: 10.11.2018 05:00:00 - 16.11.2018 05:00:00 (CET)Messina, Italy (16420): wind direction: 10.11.2018 05:00:00 - 16.11.2018 05:00:00 (CET)Messina, Italy (16420): reduced air pressure: 10.11.2018 05:00:00 - 16.11.2018 05:00:00 (CET)Messina, Italy (16420): visibility: 10.11.2018 05:00:00 - 16.11.2018 05:00:00 (CET)Messina, Italy (16420): sunshine duration: 10.11.2018 05:00:00 - 16.11.2018 05:00:00 (CET)
Date & Time tt [°C] td [°C] ff [km/h] ff [kn] dd ppp [hPa] vv [km] sd [min]
16.11.2018 05:00:00 15,8 11,6 8 4 SW 1018,5 16 -
16.11.2018 04:00:00 15,2 11,6 2 1 W 1018,5 16 -
16.11.2018 03:00:00 15,0 11,8 0 0 N 1018,8 16 -
16.11.2018 02:00:00 15,0 12,9 4 2 NW 1019,4 16 -
16.11.2018 01:00:00 15,2 13,1 2 1 NW 1019,4 16 -
16.11.2018 00:00:00 15,6 13,3 2 1 N 1019,5 16 -
15.11.2018 23:00:00 15,2 12,9 0 0 N 1019,5 16 -
15.11.2018 22:00:00 15,2 12,9 0 0 N 1019,5 16 -
15.11.2018 21:00:00 16,0 12,2 0 0 N 1019,6 16 -
15.11.2018 20:00:00 16,4 12,5 8 4 WSW 1019,8 16 -
15.11.2018 19:00:00 16,8 13,0 8 4 WSW 1019,8 16 -
15.11.2018 18:00:00 17,0 13,3 4 2 WSW 1020,2 16 -
15.11.2018 17:00:00 18,0 12,9 4 2 WSW 1020,3 20 0
15.11.2018 16:00:00 18,6 12,4 9 5 SW 1020,3 20 0
15.11.2018 15:00:00 19,6 11,4 9 5 SSW 1020,4 20 60
15.11.2018 14:00:00 20,0 13,2 5 3 ENE 1020,6 20 60
15.11.2018 13:00:00 20,0 14,6 13 7 NNW 1021,5 20 60
15.11.2018 12:00:00 20,0 13,9 9 5 ENE 1022,4 20 60
15.11.2018 11:00:00 19,8 13,7 13 7 ENE 1022,5 20 60
15.11.2018 10:00:00 19,2 13,8 15 8 ENE 1022,5 20 60
15.11.2018 09:00:00 17,8 13,3 4 2 NNW 1022,5 20 60
15.11.2018 08:00:00 16,2 12,9 5 3 NW 1022,5 20 60
15.11.2018 07:00:00 15,0 12,0 8 4 NW 1022,5 18 0
15.11.2018 06:00:00 14,6 12,1 5 3 NNW 1022,6 15 -
15.11.2018 05:00:00 15,0 12,7 4 2 W 1022,9 15 -
15.11.2018 04:00:00 15,8 12,4 4 2 SSW 1023,1 15 -
15.11.2018 03:00:00 16,4 12,8 9 5 NW 1023,4 15 -
15.11.2018 02:00:00 16,4 12,8 11 6 NW 1023,4 15 -
15.11.2018 01:00:00 16,4 12,7 13 7 NW 1023,5 15 -
15.11.2018 00:00:00 16,2 12,9 9 5 NW 1023,9 15 -
14.11.2018 23:00:00 16,2 12,7 15 8 WNW 1024,0 15 -
14.11.2018 22:00:00 16,2 12,7 11 6 NW 1024,0 15 -
14.11.2018 21:00:00 16,2 12,7 5 3 NW 1024,0 15 -
14.11.2018 20:00:00 16,6 13,5 2 1 N 1024,3 16 -
14.11.2018 19:00:00 16,8 13,5 8 4 NNW 1024,3 16 -
14.11.2018 18:00:00 17,4 14,1 2 1 N 1024,3 16 -
14.11.2018 17:00:00 17,8 13,6 13 7 N 1024,0 16 6
14.11.2018 16:00:00 19,4 12,9 11 6 NNW 1024,0 20 60
14.11.2018 15:00:00 19,6 12,4 9 5 N 1024,3 20 60
14.11.2018 14:00:00 19,6 12,4 13 7 N 1024,7 20 60
14.11.2018 13:00:00 19,6 12,0 16 9 N 1025,1 20 60
14.11.2018 12:00:00 19,4 12,2 15 8 N 1025,4 20 60
14.11.2018 11:00:00 19,2 13,0 13 7 N 1026,4 20 60
14.11.2018 10:00:00 18,6 13,1 13 7 NNW 1026,4 20 60
14.11.2018 09:00:00 18,4 13,5 15 8 NNW 1026,4 20 60
14.11.2018 08:00:00 17,0 13,3 9 5 NNW 1026,3 20 24
14.11.2018 07:00:00 16,4 13,3 9 5 NW 1026,4 16 0
14.11.2018 06:00:00 16,2 13,5 11 6 NW 1026,4 12 -
14.11.2018 05:00:00 16,6 13,5 11 6 NW 1026,5 12 -
14.11.2018 04:00:00 16,8 13,7 15 8 NW 1026,5 12 -
14.11.2018 03:00:00 16,4 13,5 8 4 NW 1026,7 12 -
14.11.2018 02:00:00 16,8 13,9 9 5 NW 1026,8 12 -
14.11.2018 01:00:00 16,8 14,1 9 5 NW 1027,1 12 -
14.11.2018 00:00:00 16,8 13,9 11 6 NW 1027,4 12 -
13.11.2018 23:00:00 16,6 13,9 9 5 NNW 1027,5 12 -
13.11.2018 22:00:00 16,4 13,7 8 4 NW 1027,6 10 -
13.11.2018 21:00:00 16,6 13,7 8 4 NNW 1027,5 16 -
13.11.2018 20:00:00 17,0 13,5 8 4 NNW 1027,5 20 -
13.11.2018 19:00:00 17,6 14,5 5 3 NNW 1027,5 20 -
13.11.2018 18:00:00 18,0 14,7 8 4 NNW 1027,0 20 -
13.11.2018 17:00:00 18,4 14,7 8 4 N 1026,6 20 6
13.11.2018 16:00:00 19,4 14,1 13 7 E 1026,3 20 60
13.11.2018 15:00:00 20,6 13,8 8 4 ENE 1026,9 20 60
13.11.2018 14:00:00 21,0 14,0 11 6 E - 10 -
13.11.2018 13:00:00 21,0 13,7 9 5 ENE 1027,5 20 60
13.11.2018 12:00:00 20,4 13,7 9 5 E 1027,8 20 60
13.11.2018 11:00:00 20,2 14,2 11 6 ENE 1028,0 20 60
13.11.2018 10:00:00 20,0 14,0 9 5 E 1027,7 20 60
13.11.2018 09:00:00 18,4 14,3 8 4 ENE 1027,8 20 60
13.11.2018 08:00:00 16,0 12,7 0 0 N 1027,5 20 30
13.11.2018 07:00:00 15,0 12,0 4 2 NE 1027,3 20 0
13.11.2018 06:00:00 14,8 11,8 4 2 WNW 1027,4 16 -
13.11.2018 05:00:00 15,0 12,3 0 0 N 1027,3 16 -
13.11.2018 04:00:00 15,0 12,3 0 0 N 1027,3 10 -
13.11.2018 03:00:00 15,0 12,5 4 2 W 1027,1 16 -
13.11.2018 02:00:00 15,4 12,9 0 0 N 1027,1 16 -
13.11.2018 01:00:00 15,4 12,9 0 0 N 1026,7 16 -
13.11.2018 00:00:00 16,8 14,3 8 4 WSW 1026,7 16 -
12.11.2018 23:00:00 17,0 14,5 4 2 WSW 1026,7 16 -
12.11.2018 22:00:00 18,0 15,4 4 2 SSW 1026,6 10 -
12.11.2018 21:00:00 18,2 15,3 4 2 S 1026,6 16 -
12.11.2018 20:00:00 18,8 15,7 9 5 SW 1026,4 16 -
12.11.2018 19:00:00 19,0 15,7 8 4 SW 1026,3 18 -
12.11.2018 18:00:00 19,4 15,9 11 6 SW 1026,1 20 -
12.11.2018 17:00:00 19,8 15,9 11 6 SW 1026,0 20 0
12.11.2018 16:00:00 20,2 15,6 15 8 SSE 1025,9 20 36
12.11.2018 15:00:00 21,2 16,4 18 10 SSW 1025,8 20 60
12.11.2018 14:00:00 21,4 16,1 13 7 SSW 1025,8 20 60
12.11.2018 13:00:00 21,6 15,2 11 6 S 1026,4 20 60
12.11.2018 12:00:00 21,4 14,8 5 3 ESE 1026,4 20 60
12.11.2018 11:00:00 21,2 14,1 5 3 ESE 1026,8 20 60
12.11.2018 10:00:00 20,2 11,7 2 1 E 1026,4 20 60
12.11.2018 09:00:00 19,0 12,3 2 1 ENE 1026,1 20 60
12.11.2018 08:00:00 16,2 12,9 0 0 N 1025,6 20 42
12.11.2018 07:00:00 15,0 12,0 0 0 N 1024,6 20 0
12.11.2018 06:00:00 14,8 12,0 0 0 N 1024,4 20 -
12.11.2018 05:00:00 14,6 11,7 0 0 N 1023,6 16 -
12.11.2018 04:00:00 14,8 12,1 0 0 N 1023,6 16 -
12.11.2018 03:00:00 15,0 12,3 0 0 N 1023,6 16 -
12.11.2018 02:00:00 15,2 12,7 0 0 N 1023,6 16 -
12.11.2018 01:00:00 15,4 12,9 0 0 N 1023,5 16 -
12.11.2018 00:00:00 15,6 13,3 0 0 N 1023,5 16 -
11.11.2018 23:00:00 15,8 13,7 0 0 N 1023,5 16 -
11.11.2018 22:00:00 16,2 14,0 2 1 NNW 1023,4 10 -
11.11.2018 21:00:00 16,8 14,3 5 3 NNW 1023,2 16 -
11.11.2018 20:00:00 17,2 13,9 0 0 N 1022,3 14 -
11.11.2018 19:00:00 17,4 14,3 0 0 N 1021,6 14 -
11.11.2018 18:00:00 18,2 14,3 0 0 N 1020,9 14 -
11.11.2018 17:00:00 20,0 14,1 4 2 SSE 1020,4 20 0
11.11.2018 16:00:00 21,2 13,6 9 5 S 1020,1 20 24
11.11.2018 15:00:00 21,2 13,1 8 4 E 1019,4 20 30
11.11.2018 14:00:00 21,2 12,4 8 4 SSE 1019,3 20 42
11.11.2018 13:00:00 22,0 12,0 8 4 SE 1019,3 20 60
11.11.2018 12:00:00 21,8 12,9 8 4 ESE 1019,4 20 60
11.11.2018 11:00:00 21,0 13,4 8 4 SSE 1019,4 20 60
11.11.2018 10:00:00 20,8 13,7 4 2 N 1018,6 20 60
11.11.2018 09:00:00 19,4 13,8 5 3 SE 1018,4 20 60
11.11.2018 08:00:00 16,8 13,7 0 0 N 1018,2 20 12
11.11.2018 07:00:00 16,6 13,9 0 0 N 1017,1 16 0
11.11.2018 06:00:00 16,6 13,9 2 1 NNW 1016,6 14 -
11.11.2018 05:00:00 16,4 13,3 4 2 W 1016,4 14 -
11.11.2018 04:00:00 16,2 13,3 5 3 N 1016,1 14 -
11.11.2018 03:00:00 16,2 13,7 4 2 WSW 1016,0 14 -
11.11.2018 02:00:00 17,0 14,3 0 0 N 1016,0 14 -
11.11.2018 01:00:00 17,8 14,7 2 1 NNE 1015,9 14 -
11.11.2018 00:00:00 18,2 13,9 4 2 ENE 1015,6 14 -
10.11.2018 23:00:00 18,4 13,9 15 8 SW 1015,4 14 -
10.11.2018 22:00:00 18,6 11,9 13 7 SW 1015,4 14 -
10.11.2018 21:00:00 17,6 11,4 16 9 SW 1015,2 16 -
10.11.2018 20:00:00 18,2 14,7 2 1 S 1015,2 16 -
10.11.2018 19:00:00 18,6 14,3 9 5 SW 1014,5 16 -
10.11.2018 18:00:00 18,8 14,7 16 9 SW 1014,3 16 -
10.11.2018 17:00:00 19,0 14,1 15 8 SW 1014,3 20 0
10.11.2018 16:00:00 20,0 13,9 15 8 SW 1014,3 20 42
10.11.2018 15:00:00 20,2 13,7 13 7 SSW 1014,3 20 48
10.11.2018 14:00:00 21,0 14,4 15 8 SSW 1014,5 20 60
10.11.2018 13:00:00 20,2 14,1 18 10 SSW 1015,1 20 60
10.11.2018 12:00:00 20,2 13,9 21 11 SSW 1015,3 20 60
10.11.2018 11:00:00 19,8 13,5 18 10 SSW 1016,0 20 60
10.11.2018 10:00:00 19,2 14,0 13 7 SSW 1015,6 20 60
10.11.2018 09:00:00 19,0 14,1 15 8 SW 1015,7 20 60
10.11.2018 08:00:00 17,8 13,3 9 5 SW 1015,7 20 60
10.11.2018 07:00:00 16,4 12,4 13 7 WSW 1015,7 20 0
10.11.2018 06:00:00 15,2 11,8 11 6 WSW 1016,0 20 -
10.11.2018 05:00:00 15,0 12,1 0 0 N 1016,5 10 -

tt = temperature
td = dewpoint
ff = wind speed
dd = wind direction
ppp = reduced air pressure
vv = visibility
sd = sunshine duration

Next stations